| time (UTC) | temp C | wind direction | speed KPH | gust KPH | rain 1hr cm | rain 24hr cm | rain mn cm | humidity % | barometer mb |
| 20260509113055 | 13 | 263 | 0.0 | 0.0 | 0.00 | 0.00 | 0.00 | 84 | 1028.8 |
| 20260509112555 | 13 | 263 | 0.0 | 4.8 | 0.00 | 0.00 | 0.00 | 84 | 1028.7 |
| 20260509111435 | 13 | 263 | 0.0 | 0.0 | 0.00 | 0.00 | 0.00 | 84 | 1028.7 |
| 20260509110921 | 13 | 263 | 0.0 | 0.0 | 0.00 | 0.00 | 0.00 | 83 | 1028.8 |
| 20260509110425 | 13 | 263 | 0.0 | 0.0 | 0.00 | 0.00 | 0.00 | 83 | 1028.8 |
| 20260509105915 | 13 | 263 | 0.0 | 0.0 | 0.00 | 0.00 | 0.00 | 83 | 1028.8 |
| 20260509105424 | 13 | 263 | 0.0 | 0.0 | 0.00 | 0.00 | 0.00 | 83 | 1028.8 |
| 20260509104258 | 13 | 263 | 0.0 | 1.6 | 0.00 | 0.00 | 0.00 | 82 | 1028.8 |
| 20260509103808 | 13 | 263 | 0.0 | 0.0 | 0.00 | 0.00 | 0.00 | 82 | 1028.8 |
| 20260509103249 | 13 | 263 | 0.0 | 0.0 | 0.00 | 0.00 | 0.00 | 81 | 1028.8 |
| 20260509102747 | 14 | 263 | 0.0 | 0.0 | 0.00 | 0.00 | 0.00 | 81 | 1028.9 |
| 20260509102231 | 14 | 263 | 0.0 | 0.0 | 0.00 | 0.00 | 0.00 | 81 | 1028.9 |
| 20260509101727 | 14 | 263 | 0.0 | 0.0 | 0.00 | 0.00 | 0.00 | 81 | 1028.9 |
| 20260509100623 | 14 | 263 | 0.0 | 0.0 | 0.00 | 0.00 | 0.00 | 81 | 1028.9 |
| 20260509100107 | 15 | 263 | 0.0 | 0.0 | 0.00 | 0.00 | 0.00 | 81 | 1028.9 |
| 20260509095602 | 15 | 263 | 0.0 | 0.0 | 0.00 | 0.00 | 0.00 | 81 | 1028.8 |
| 20260509095048 | 15 | 263 | 0.0 | 0.0 | 0.00 | 0.00 | 0.00 | 81 | 1028.8 |
| 20260509094531 | 15 | 263 | 0.0 | 0.0 | 0.00 | 0.00 | 0.00 | 81 | 1028.8 |
| 20260509094022 | 15 | 263 | 0.0 | 3.2 | 0.00 | 0.00 | 0.00 | 81 | 1028.6 |
| 20260509092843 | 15 | 263 | 0.0 | 4.8 | 0.00 | 0.00 | 0.00 | 80 | 1028.6 |
| 20260509092344 | 15 | 263 | 0.0 | 4.8 | 0.00 | 0.00 | 0.00 | 80 | 1028.6 |
| 20260509091233 | 15 | 263 | 0.0 | 6.4 | 0.00 | 0.00 | 0.00 | 80 | 1028.6 |
| 20260509090724 | 15 | 263 | 0.0 | 6.4 | 0.00 | 0.00 | 0.00 | 80 | 1028.6 |
| 20260509090211 | 15 | 263 | 0.0 | 6.4 | 0.00 | 0.00 | 0.00 | 80 | 1028.6 |
| 20260509085719 | 15 | 263 | 1.6 | 8.0 | 0.00 | 0.00 | 0.00 | 79 | 1028.5 |
| 20260509085220 | 15 | 263 | 0.0 | 8.0 | 0.00 | 0.00 | 0.00 | 79 | 1028.5 |
| 20260509084706 | 15 | 263 | 0.0 | 1.6 | 0.00 | 0.00 | 0.00 | 79 | 1028.5 |
| 20260509084153 | 15 | 263 | 0.0 | 0.0 | 0.00 | 0.00 | 0.00 | 79 | 1028.5 |
| 20260509083645 | 15 | 263 | 0.0 | 4.8 | 0.00 | 0.00 | 0.00 | 79 | 1028.5 |
| 20260509083153 | 16 | 263 | 0.0 | 0.0 | 0.00 | 0.00 | 0.00 | 79 | 1028.5 |
| 20260509082018 | 16 | 263 | 0.0 | 6.4 | 0.00 | 0.00 | 0.00 | 79 | 1028.4 |
| 20260509081517 | 16 | 263 | 0.0 | 0.0 | 0.00 | 0.00 | 0.00 | 79 | 1028.4 |
| 20260509075140 | 16 | 263 | 1.6 | 0.0 | 0.00 | 0.00 | 0.00 | 79 | 1028.1 |
| 20260509074038 | 16 | 263 | 1.6 | 9.7 | 0.00 | 0.00 | 0.00 | 79 | 1028.1 |
| 20260509073536 | 16 | 263 | 1.6 | 8.0 | 0.00 | 0.00 | 0.00 | 80 | 1028.1 |
| 20260509073044 | 16 | 263 | 0.0 | 8.0 | 0.00 | 0.00 | 0.00 | 81 | 1028.1 |
| 20260509072544 | 16 | 263 | 0.0 | 3.2 | 0.00 | 0.00 | 0.00 | 81 | 1028.1 |
| 20260509072027 | 16 | 263 | 0.0 | 4.8 | 0.00 | 0.00 | 0.00 | 82 | 1028.1 |
| 20260509071532 | 16 | 263 | 0.0 | 4.8 | 0.00 | 0.00 | 0.00 | 82 | 1028.1 |
| 20260509071026 | 16 | 263 | 0.0 | 4.8 | 0.00 | 0.00 | 0.00 | 83 | 1028.0 |
| 20260509070519 | 16 | 263 | 0.0 | 1.6 | 0.00 | 0.00 | 0.00 | 83 | 1028.0 |
| 20260509070000 | 16 | 263 | 0.0 | 4.8 | 0.00 | 0.00 | 0.00 | 83 | 1028.0 |
| 20260509064850 | 16 | 263 | 0.0 | 9.7 | 0.00 | 0.00 | 0.00 | 82 | 1028.0 |
| 20260509064333 | 16 | 263 | 1.6 | 9.7 | 0.00 | 0.00 | 0.00 | 82 | 1028.0 |
| 20260509063226 | 16 | 263 | 1.6 | 9.7 | 0.00 | 0.00 | 0.00 | 81 | 1028.0 |
| 20260509062735 | 16 | 263 | 1.6 | 4.8 | 0.00 | 0.00 | 0.00 | 81 | 1028.0 |
| 20260509061601 | 16 | 263 | 3.2 | 9.7 | 0.00 | 0.00 | 0.00 | 81 | 1028.0 |
| 20260509061043 | 16 | 263 | 3.2 | 14.5 | 0.00 | 0.00 | 0.00 | 82 | 1027.9 |
| 20260509060553 | 16 | 263 | 4.8 | 14.5 | 0.00 | 0.00 | 0.00 | 82 | 1027.9 |
| 20260509060058 | 16 | 263 | 4.8 | 14.5 | 0.00 | 0.00 | 0.00 | 81 | 1027.9 |
| 20260509054311 | 17 | 263 | 3.2 | 14.5 | 0.00 | 0.00 | 0.00 | 80 | 1028.0 |
| 20260509053754 | 17 | 263 | 4.8 | 14.5 | 0.00 | 0.00 | 0.00 | 79 | 1028.0 |
| 20260509052629 | 17 | 263 | 1.6 | 9.7 | 0.00 | 0.00 | 0.00 | 79 | 1028.0 |
| 20260509052121 | 17 | 263 | 3.2 | 9.7 | 0.00 | 0.00 | 0.00 | 79 | 1028.0 |
| 20260509051613 | 17 | 263 | 3.2 | 9.7 | 0.00 | 0.00 | 0.00 | 79 | 1028.0 |
| 20260509051055 | 17 | 263 | 3.2 | 8.0 | 0.00 | 0.00 | 0.00 | 79 | 1028.0 |
| 20260509045245 | 17 | 263 | 3.2 | 11.3 | 0.00 | 0.00 | 0.00 | 79 | 1028.0 |
| 20260509044734 | 17 | 263 | 4.8 | 12.9 | 0.00 | 0.00 | 0.00 | 79 | 1028.0 |
| 20260509044220 | 17 | 263 | 4.8 | 12.9 | 0.00 | 0.00 | 0.00 | 79 | 1028.0 |
| 20260509043729 | 17 | 263 | 4.8 | 12.9 | 0.00 | 0.00 | 0.00 | 80 | 1028.0 |
| 20260509043212 | 17 | 263 | 3.2 | 12.9 | 0.00 | 0.00 | 0.00 | 81 | 1028.0 |
| 20260509042712 | 17 | 263 | 3.2 | 11.3 | 0.00 | 0.00 | 0.00 | 81 | 1028.2 |
| 20260509042217 | 16 | 263 | 4.8 | 16.1 | 0.00 | 0.00 | 0.00 | 81 | 1028.2 |
| 20260509041713 | 16 | 263 | 4.8 | 16.1 | 0.00 | 0.00 | 0.00 | 82 | 1028.2 |
| 20260509041217 | 16 | 263 | 4.8 | 17.7 | 0.00 | 0.00 | 0.00 | 82 | 1028.2 |
| 20260509040717 | 16 | 263 | 4.8 | 17.7 | 0.00 | 0.00 | 0.00 | 83 | 1028.2 |
| 20260509040210 | 16 | 263 | 6.4 | 17.7 | 0.00 | 0.00 | 0.00 | 82 | 1028.2 |
| 20260509035654 | 16 | 263 | 6.4 | 17.7 | 0.00 | 0.00 | 0.00 | 82 | 1028.4 |
| 20260509035149 | 16 | 263 | 6.4 | 14.5 | 0.00 | 0.00 | 0.00 | 82 | 1028.4 |
| 20260509034657 | 16 | 263 | 6.4 | 14.5 | 0.00 | 0.00 | 0.00 | 82 | 1028.4 |
| 20260509033556 | 16 | 263 | 6.4 | 16.1 | 0.00 | 0.00 | 0.00 | 82 | 1028.6 |
| 20260509033046 | 16 | 263 | 6.4 | 16.1 | 0.00 | 0.00 | 0.00 | 82 | 1028.6 |
| 20260509032541 | 16 | 263 | 6.4 | 16.1 | 0.00 | 0.00 | 0.00 | 82 | 1028.8 |
| 20260509032041 | 16 | 263 | 6.4 | 16.1 | 0.00 | 0.00 | 0.00 | 81 | 1028.8 |
| 20260509031530 | 16 | 263 | 4.8 | 14.5 | 0.00 | 0.00 | 0.00 | 81 | 1028.8 |
| 20260509030417 | 16 | 263 | 4.8 | 9.7 | 0.00 | 0.00 | 0.00 | 81 | 1029.1 |
| 20260509025918 | 16 | 263 | 4.8 | 9.7 | 0.00 | 0.00 | 0.00 | 81 | 1029.1 |
| 20260509025418 | 16 | 263 | 4.8 | 14.5 | 0.00 | 0.00 | 0.00 | 80 | 1029.2 |
| 20260509024923 | 17 | 263 | 4.8 | 14.5 | 0.00 | 0.00 | 0.00 | 79 | 1029.2 |
| 20260509024423 | 17 | 263 | 4.8 | 14.5 | 0.00 | 0.00 | 0.00 | 78 | 1029.2 |
| 20260509023906 | 17 | 263 | 3.2 | 14.5 | 0.00 | 0.00 | 0.00 | 77 | 1029.5 |
| 20260509023410 | 17 | 263 | 1.6 | 8.0 | 0.00 | 0.00 | 0.00 | 78 | 1029.5 |
| 20260509022310 | 16 | 263 | 3.2 | 8.0 | 0.00 | 0.00 | 0.00 | 78 | 1029.7 |
| 20260509021820 | 16 | 263 | 3.2 | 8.0 | 0.00 | 0.00 | 0.00 | 78 | 1029.7 |
| 20260509021317 | 16 | 263 | 3.2 | 8.0 | 0.00 | 0.00 | 0.00 | 78 | 1030.0 |
| 20260509020146 | 16 | 263 | 3.2 | 8.0 | 0.00 | 0.00 | 0.00 | 78 | 1030.0 |
| 20260509015631 | 17 | 263 | 3.2 | 9.7 | 0.00 | 0.00 | 0.00 | 78 | 1030.1 |
| 20260509015110 | 17 | 263 | 3.2 | 9.7 | 0.00 | 0.00 | 0.00 | 78 | 1030.1 |
| 20260509014557 | 17 | 263 | 3.2 | 9.7 | 0.00 | 0.00 | 0.00 | 78 | 1030.1 |
| 20260509014041 | 17 | 263 | 3.2 | 9.7 | 0.00 | 0.00 | 0.00 | 78 | 1030.1 |
| 20260509013526 | 17 | 263 | 1.6 | 8.0 | 0.00 | 0.00 | 0.00 | 80 | 1030.1 |
| 20260509013027 | 17 | 263 | 1.6 | 8.0 | 0.00 | 0.00 | 0.00 | 80 | 1030.1 |
| 20260509012527 | 16 | 263 | 1.6 | 8.0 | 0.00 | 0.00 | 0.00 | 80 | 1030.1 |
| 20260509012032 | 16 | 263 | 3.2 | 8.0 | 0.00 | 0.00 | 0.00 | 81 | 1030.1 |
| 20260509011534 | 16 | 263 | 1.6 | 6.4 | 0.00 | 0.00 | 0.00 | 82 | 1030.1 |
| 20260509011015 | 16 | 263 | 1.6 | 6.4 | 0.00 | 0.03 | 0.00 | 83 | 1030.2 |
| 20260509010511 | 16 | 263 | 1.6 | 6.4 | 0.00 | 0.03 | 0.00 | 84 | 1030.2 |
| 20260509010012 | 16 | 263 | 1.6 | 8.0 | 0.00 | 0.03 | 0.00 | 85 | 1030.2 |
| 20260509004829 | 15 | 263 | 3.2 | 8.0 | 0.00 | 0.03 | 0.00 | 87 | 1030.2 |
| 20260509004325 | 15 | 263 | 3.2 | 8.0 | 0.00 | 0.03 | 0.00 | 88 | 1030.2 |
| 20260509003807 | 15 | 263 | 3.2 | 6.4 | 0.00 | 0.03 | 0.00 | 88 | 1030.2 |
| 20260509003311 | 15 | 263 | 1.6 | 6.4 | 0.00 | 0.03 | 0.00 | 88 | 1030.2 |
| 20260509002815 | 15 | 263 | 1.6 | 6.4 | 0.00 | 0.03 | 0.00 | 89 | 1030.4 |
| 20260509002318 | 15 | 263 | 0.0 | 4.8 | 0.00 | 0.03 | 0.00 | 89 | 1030.4 |
| 20260509001819 | 15 | 263 | 0.0 | 4.8 | 0.00 | 0.03 | 0.00 | 89 | 1030.4 |
| 20260509001305 | 15 | 263 | 0.0 | 3.2 | 0.00 | 0.03 | 0.00 | 90 | 1030.5 |
| 20260509000753 | 15 | 263 | 0.0 | 4.8 | 0.00 | 0.03 | 0.00 | 90 | 1030.5 |
| 20260508235643 | 15 | 263 | 0.0 | 0.0 | 0.00 | 0.03 | 0.00 | 91 | 1030.5 |
| 20260508234516 | 15 | 263 | 0.0 | 0.0 | 0.00 | 0.03 | 0.00 | 92 | 1030.5 |
| 20260508234015 | 14 | 263 | 0.0 | 0.0 | 0.00 | 0.03 | 0.00 | 93 | 1030.5 |
| 20260508233518 | 13 | 263 | 0.0 | 0.0 | 0.00 | 0.03 | 0.00 | 93 | 1030.5 |
| 20260508233003 | 13 | 263 | 0.0 | 0.0 | 0.00 | 0.03 | 0.00 | 93 | 1030.5 |
| 20260508232452 | 13 | 263 | 0.0 | 0.0 | 0.00 | 0.03 | 0.00 | 92 | 1030.4 |
| 20260508231340 | 13 | 263 | 0.0 | 0.0 | 0.00 | 0.03 | 0.00 | 93 | 1030.2 |
| 20260508230828 | 12 | 263 | 0.0 | 0.0 | 0.00 | 0.03 | 0.00 | 93 | 1030.2 |
| 20260508224440 | 11 | 263 | 0.0 | 0.0 | 0.00 | 0.03 | 0.00 | 92 | 1030.2 |
| 20260508223259 | 11 | 263 | 0.0 | 0.0 | 0.00 | 0.03 | 0.00 | 92 | 1030.1 |
| 20260508222750 | 11 | 263 | 0.0 | 0.0 | 0.00 | 0.03 | 0.00 | 92 | 1030.1 |
| 20260508222234 | 11 | 263 | 0.0 | 0.0 | 0.00 | 0.03 | 0.00 | 92 | 1030.1 |
| 20260508221720 | 11 | 263 | 0.0 | 0.0 | 0.00 | 0.03 | 0.00 | 92 | 1030.1 |
| 20260508221226 | 11 | 263 | 0.0 | 0.0 | 0.00 | 0.03 | 0.00 | 92 | 1030.0 |
| 20260508220114 | 10 | 263 | 0.0 | 0.0 | 0.00 | 0.00 | 0.00 | 91 | 1030.0 |
| 20260508215621 | 10 | 263 | 0.0 | 0.0 | 0.00 | 0.00 | 0.00 | 91 | 1029.9 |
| 20260508215102 | 10 | 263 | 0.0 | 0.0 | 0.00 | 0.00 | 0.00 | 91 | 1029.9 |
| 20260508213941 | 10 | 263 | 0.0 | 0.0 | 0.00 | 0.00 | 0.00 | 91 | 1029.6 |
| 20260508213429 | 10 | 263 | 0.0 | 0.0 | 0.00 | 0.00 | 0.00 | 91 | 1029.6 |
| 20260508212923 | 11 | 263 | 0.0 | 0.0 | 0.00 | 0.00 | 0.00 | 91 | 1029.6 |
| 20260508212410 | 11 | 263 | 0.0 | 0.0 | 0.00 | 0.00 | 0.00 | 91 | 1029.6 |
| 20260508211854 | 11 | 263 | 0.0 | 0.0 | 0.00 | 0.00 | 0.00 | 91 | 1029.6 |
| 20260508211349 | 11 | 263 | 0.0 | 0.0 | 0.00 | 0.00 | 0.00 | 91 | 1029.6 |
| 20260508210839 | 11 | 263 | 0.0 | 0.0 | 0.00 | 0.00 | 0.00 | 91 | 1029.6 |
| 20260508210322 | 11 | 263 | 0.0 | 0.0 | 0.00 | 0.00 | 0.00 | 91 | 1029.6 |
| 20260508205158 | 11 | 263 | 0.0 | 0.0 | 0.00 | 0.00 | 0.00 | 91 | 1029.5 |
| 20260508204643 | 11 | 263 | 0.0 | 0.0 | 0.00 | 0.00 | 0.00 | 90 | 1029.5 |
| 20260508204139 | 11 | 263 | 0.0 | 0.0 | 0.00 | 0.00 | 0.00 | 91 | 1029.4 |
| 20260508203633 | 11 | 263 | 0.0 | 0.0 | 0.00 | 0.00 | 0.00 | 91 | 1029.4 |
| 20260508203114 | 11 | 263 | 0.0 | 0.0 | 0.00 | 0.00 | 0.00 | 91 | 1029.4 |
| 20260508201938 | 12 | 263 | 0.0 | 0.0 | 0.00 | 0.00 | 0.00 | 90 | 1029.2 |
| 20260508201429 | 12 | 263 | 0.0 | 0.0 | 0.00 | 0.00 | 0.00 | 91 | 1029.2 |
| 20260508200914 | 12 | 263 | 0.0 | 0.0 | 0.00 | 0.00 | 0.00 | 91 | 1029.1 |
| 20260508200359 | 12 | 263 | 0.0 | 0.0 | 0.00 | 0.00 | 0.00 | 91 | 1029.1 |
| 20260508195908 | 12 | 263 | 0.0 | 0.0 | 0.00 | 0.00 | 0.00 | 91 | 1029.1 |
| 20260508195412 | 12 | 263 | 0.0 | 0.0 | 0.00 | 0.00 | 0.00 | 91 | 1029.0 |
| 20260508194900 | 12 | 263 | 0.0 | 0.0 | 0.00 | 0.00 | 0.00 | 91 | 1029.0 |
| 20260508194405 | 12 | 263 | 0.0 | 0.0 | 0.00 | 0.00 | 0.00 | 91 | 1029.0 |
| 20260508193845 | 12 | 263 | 0.0 | 6.4 | 0.00 | 0.00 | 0.00 | 91 | 1029.0 |
| 20260508193340 | 12 | 263 | 0.0 | 6.4 | 0.00 | 0.00 | 0.00 | 91 | 1029.0 |
| 20260508192834 | 12 | 263 | 0.0 | 0.0 | 0.00 | 0.00 | 0.00 | 91 | 1028.9 |
| 20260508192328 | 12 | 263 | 0.0 | 0.0 | 0.00 | 0.00 | 0.00 | 91 | 1028.9 |
| 20260508191813 | 12 | 263 | 0.0 | 0.0 | 0.00 | 0.00 | 0.00 | 91 | 1028.9 |
| 20260508191255 | 12 | 263 | 0.0 | 0.0 | 0.00 | 0.00 | 0.00 | 91 | 1028.9 |
| 20260508190753 | 12 | 263 | 0.0 | 0.0 | 0.00 | 0.00 | 0.00 | 91 | 1028.9 |
| 20260508185626 | 12 | 263 | 0.0 | 0.0 | 0.00 | 0.00 | 0.00 | 91 | 1028.8 |
| 20260508185130 | 12 | 263 | 0.0 | 0.0 | 0.00 | 0.00 | 0.00 | 91 | 1028.8 |
| 20260508184622 | 12 | 263 | 0.0 | 0.0 | 0.00 | 0.00 | 0.00 | 91 | 1028.8 |
| 20260508184131 | 12 | 263 | 0.0 | 0.0 | 0.00 | 0.00 | 0.00 | 91 | 1028.9 |
| 20260508183626 | 12 | 263 | 0.0 | 0.0 | 0.00 | 0.00 | 0.00 | 91 | 1028.9 |
| 20260508183129 | 12 | 263 | 0.0 | 0.0 | 0.00 | 0.00 | 0.00 | 91 | 1028.9 |
| 20260508182006 | 12 | 263 | 0.0 | 0.0 | 0.00 | 0.00 | 0.00 | 90 | 1029.0 |
| 20260508181506 | 12 | 263 | 0.0 | 0.0 | 0.00 | 0.00 | 0.00 | 90 | 1029.0 |
| 20260508181003 | 12 | 263 | 0.0 | 0.0 | 0.00 | 0.00 | 0.00 | 90 | 1029.0 |
| 20260508180447 | 12 | 263 | 0.0 | 0.0 | 0.00 | 0.00 | 0.00 | 90 | 1029.0 |
| 20260508175948 | 12 | 263 | 0.0 | 0.0 | 0.00 | 0.00 | 0.00 | 90 | 1029.0 |
| 20260508175443 | 12 | 263 | 0.0 | 0.0 | 0.00 | 0.00 | 0.00 | 90 | 1029.1 |
| 20260508174947 | 12 | 263 | 0.0 | 0.0 | 0.00 | 0.00 | 0.00 | 90 | 1029.1 |
| 20260508173805 | 12 | 263 | 0.0 | 0.0 | 0.00 | 0.00 | 0.00 | 90 | 1029.3 |
| 20260508172635 | 12 | 263 | 0.0 | 0.0 | 0.00 | 0.00 | 0.00 | 90 | 1029.2 |
| 20260508172145 | 12 | 263 | 0.0 | 0.0 | 0.00 | 0.00 | 0.00 | 90 | 1029.2 |
| 20260508171649 | 12 | 263 | 0.0 | 0.0 | 0.00 | 0.00 | 0.00 | 90 | 1029.2 |
| 20260508170519 | 12 | 263 | 0.0 | 0.0 | 0.00 | 0.00 | 0.00 | 90 | 1029.1 |
| 20260508165347 | 12 | 263 | 0.0 | 0.0 | 0.00 | 0.00 | 0.00 | 90 | 1029.1 |
| 20260508164838 | 12 | 263 | 1.6 | 4.8 | 0.00 | 0.00 | 0.00 | 90 | 1029.1 |
| 20260508164342 | 12 | 263 | 1.6 | 4.8 | 0.00 | 0.00 | 0.00 | 90 | 1029.0 |
| 20260508163826 | 12 | 263 | 1.6 | 4.8 | 0.00 | 0.00 | 0.00 | 90 | 1029.0 |
| 20260508163328 | 11 | 263 | 1.6 | 4.8 | 0.00 | 0.00 | 0.00 | 90 | 1029.0 |
| 20260508162142 | 11 | 263 | 1.6 | 3.2 | 0.00 | 0.00 | 0.00 | 89 | 1029.1 |
| 20260508160353 | 11 | 263 | 0.0 | 1.6 | 0.00 | 0.00 | 0.00 | 89 | 1029.2 |
| 20260508155227 | 11 | 263 | 0.0 | 3.2 | 0.00 | 0.00 | 0.00 | 89 | 1029.2 |
| 20260508154720 | 11 | 263 | 0.0 | 3.2 | 0.00 | 0.00 | 0.00 | 89 | 1029.2 |
| 20260508154230 | 11 | 263 | 0.0 | 0.0 | 0.00 | 0.00 | 0.00 | 89 | 1029.3 |
| 20260508153714 | 11 | 263 | 0.0 | 0.0 | 0.00 | 0.00 | 0.00 | 89 | 1029.3 |
| 20260508153202 | 11 | 263 | 0.0 | 0.0 | 0.00 | 0.00 | 0.00 | 89 | 1029.3 |
| 20260508152653 | 11 | 263 | 0.0 | 0.0 | 0.00 | 0.00 | 0.00 | 88 | 1029.5 |
| 20260508152153 | 11 | 263 | 0.0 | 0.0 | 0.00 | 0.00 | 0.00 | 88 | 1029.5 |
| 20260508151638 | 11 | 263 | 0.0 | 0.0 | 0.00 | 0.00 | 0.00 | 88 | 1029.5 |
| 20260508151146 | 11 | 263 | 0.0 | 0.0 | 0.00 | 0.00 | 0.00 | 88 | 1029.5 |
| 20260508150648 | 11 | 263 | 0.0 | 0.0 | 0.00 | 0.00 | 0.00 | 88 | 1029.5 |
| 20260508145530 | 12 | 263 | 0.0 | 0.0 | 0.00 | 0.00 | 0.00 | 88 | 1029.5 |
| 20260508145031 | 12 | 263 | 0.0 | 0.0 | 0.00 | 0.00 | 0.00 | 88 | 1029.5 |
| 20260508144531 | 12 | 263 | 0.0 | 0.0 | 0.00 | 0.00 | 0.00 | 88 | 1029.5 |
| 20260508144027 | 12 | 263 | 0.0 | 0.0 | 0.00 | 0.00 | 0.00 | 87 | 1029.6 |
| 20260508143526 | 12 | 263 | 0.0 | 0.0 | 0.00 | 0.00 | 0.00 | 87 | 1029.6 |
| 20260508142401 | 12 | 263 | 0.0 | 0.0 | 0.00 | 0.00 | 0.00 | 87 | 1029.6 |
| 20260508141854 | 12 | 263 | 0.0 | 0.0 | 0.00 | 0.00 | 0.00 | 87 | 1029.6 |
| 20260508141400 | 12 | 263 | 0.0 | 0.0 | 0.00 | 0.00 | 0.00 | 87 | 1029.6 |
| 20260508135606 | 12 | 263 | 0.0 | 0.0 | 0.00 | 0.00 | 0.00 | 87 | 1029.7 |
| 20260508135114 | 12 | 263 | 0.0 | 3.2 | 0.00 | 0.00 | 0.00 | 87 | 1029.7 |
| 20260508134554 | 12 | 263 | 0.0 | 3.2 | 0.00 | 0.00 | 0.00 | 87 | 1029.7 |
| 20260508134100 | 12 | 263 | 0.0 | 3.2 | 0.00 | 0.00 | 0.00 | 86 | 1030.0 |
| 20260508133549 | 12 | 263 | 0.0 | 0.0 | 0.00 | 0.00 | 0.00 | 86 | 1030.0 |
| 20260508133036 | 12 | 263 | 0.0 | 0.0 | 0.00 | 0.00 | 0.00 | 86 | 1030.0 |
| 20260508132528 | 12 | 263 | 0.0 | 0.0 | 0.00 | 0.00 | 0.00 | 86 | 1030.1 |
| 20260508132035 | 12 | 263 | 0.0 | 0.0 | 0.00 | 0.00 | 0.00 | 86 | 1030.1 |
| 20260508130908 | 12 | 263 | 0.0 | 4.8 | 0.00 | 0.00 | 0.00 | 86 | 1030.1 |
| 20260508130403 | 12 | 263 | 0.0 | 4.8 | 0.00 | 0.00 | 0.00 | 86 | 1030.1 |
| 20260508125854 | 12 | 263 | 0.0 | 3.2 | 0.00 | 0.00 | 0.00 | 85 | 1030.1 |
| 20260508125357 | 12 | 263 | 0.0 | 1.6 | 0.00 | 0.00 | 0.00 | 85 | 1030.1 |
| 20260508124224 | 12 | 263 | 0.0 | 4.8 | 0.00 | 0.00 | 0.00 | 85 | 1030.1 |
| 20260508123725 | 12 | 263 | 1.6 | 4.8 | 0.00 | 0.00 | 0.00 | 85 | 1030.1 |
| 20260508123228 | 13 | 263 | 1.6 | 4.8 | 0.00 | 0.00 | 0.00 | 85 | 1030.1 |
| 20260508122728 | 13 | 263 | 0.0 | 4.8 | 0.00 | 0.00 | 0.00 | 85 | 1030.1 |
| 20260508122214 | 13 | 263 | 0.0 | 3.2 | 0.00 | 0.00 | 0.00 | 84 | 1030.1 |
| 20260508121716 | 13 | 263 | 1.6 | 3.2 | 0.00 | 0.00 | 0.00 | 84 | 1030.1 |
| 20260508121216 | 13 | 263 | 1.6 | 3.2 | 0.00 | 0.00 | 0.00 | 84 | 1030.1 |
| 20260508120712 | 13 | 263 | 0.0 | 3.2 | 0.00 | 0.00 | 0.00 | 83 | 1030.1 |
| 20260508114934 | 13 | 263 | 0.0 | 1.6 | 0.00 | 0.00 | 0.00 | 83 | 1030.1 |
| 20260508114440 | 13 | 263 | 0.0 | 0.0 | 0.00 | 0.00 | 0.00 | 83 | 1030.1 |
| 20260508113926 | 13 | 263 | 0.0 | 3.2 | 0.00 | 0.00 | 0.00 | 82 | 1030.1 |